When you browse on this site, cookies collect data to enhance your experience and personalize the content and advertising you see.
Visit our Privacy Policy to learn more. By continuing to use the site, you agree to this use of cookies and data.
  • In Portugal
  • List of Countries
  • For 7 days
  • Water Temperature
  • Satellite Maps
  • Weather Map
  • Weather Widgets
  • user-avatar
    Login

    Hourly Weather Berat

    Today, 24 March, Sunday

    Time Temperature Precipitation Wind Pressure Humidity
    00:00 +14°C° 0 mm 2 mps 747 mmHg 54%
    01:00 +14°C° 0 mm 2 mps 747 mmHg 52%
    02:00 +13°C° 0 mm 2 mps 747 mmHg 53%
    03:00 +13°C° 0 mm 2 mps 747 mmHg 55%
    04:00 +13°C° 0 mm 2 mps 747 mmHg 57%
    05:00 +13°C° 0 mm 2 mps 747 mmHg 58%
    06:00 +14°C° 0 mm 2 mps 747 mmHg 59%
    07:00 +14°C° 0 mm 2 mps 747 mmHg 60%
    08:00 +16°C° 0 mm 2 mps 748 mmHg 52%
    09:00 +19°C° 0 mm 2 mps 748 mmHg 44%
    10:00 +22°C° 0 mm 1 mps 748 mmHg 36%
    11:00 +22°C° 0 mm 1 mps 747 mmHg 34%
    12:00 +23°C° 0 mm 2 mps 747 mmHg 32%
    13:00 +24°C° 0 mm 2 mps 747 mmHg 30%
    14:00 +22°C° 0 mm 3 mps 747 mmHg 34%
    15:00 +21°C° 0 mm 3 mps 746 mmHg 38%
    16:00 +21°C° 0 mm 3 mps 746 mmHg 41%
    17:00 +19°C° 0 mm 2 mps 746 mmHg 48%
    18:00 +17°C° 0 mm 2 mps 746 mmHg 55%
    19:00 +15°C° 0 mm 1 mps 746 mmHg 62%
    20:00 +14°C° 0 mm 1 mps 746 mmHg 62%
    21:00 +13°C° 0 mm 0 mps 746 mmHg 62%
    22:00 +12°C° 0 mm 0 mps 746 mmHg 61%
    23:00 +13°C° 0 mm 1 mps 746 mmHg 61%

    Tomorrow, 25 March, Monday

    Time Temperature Precipitation Wind Pressure Humidity
    00:00 +13°C° 0 mm 1 mps 746 mmHg 60%
    01:00 +13°C° 0 mm 1 mps 746 mmHg 59%
    02:00 +13°C° 0 mm 1 mps 746 mmHg 59%
    03:00 +12°C° 0 mm 1 mps 745 mmHg 59%
    04:00 +12°C° 0 mm 1 mps 745 mmHg 58%
    05:00 +13°C° 0 mm 1 mps 745 mmHg 58%
    06:00 +13°C° 0 mm 1 mps 745 mmHg 57%
    07:00 +14°C° 0 mm 1 mps 745 mmHg 56%
    08:00 +16°C° 0 mm 1 mps 745 mmHg 49%
    09:00 +18°C° 0 mm 1 mps 745 mmHg 42%
    10:00 +19°C° 0 mm 2 mps 744 mmHg 35%
    11:00 +20°C° 0 mm 2 mps 744 mmHg 35%
    12:00 +20°C° 0 mm 3 mps 743 mmHg 34%
    13:00 +21°C° 0 mm 3 mps 743 mmHg 34%
    14:00 +20°C° 0 mm 3 mps 742 mmHg 36%
    15:00 +19°C° 0 mm 3 mps 742 mmHg 39%
    16:00 +19°C° 0 mm 3 mps 741 mmHg 42%
    17:00 +17°C° 0 mm 2 mps 741 mmHg 48%
    18:00 +15°C° 0 mm 1 mps 741 mmHg 55%
    19:00 +12°C° 0 mm 0 mps 741 mmHg 61%
    20:00 +13°C° 0 mm 1 mps 741 mmHg 61%
    21:00 +13°C° 0 mm 1 mps 741 mmHg 60%
    22:00 +12°C° 0 mm 1 mps 741 mmHg 59%
    23:00 +12°C° 0 mm 1 mps 741 mmHg 59%

    Day after tomorrow, 26 March, Tuesday

    Time Temperature Precipitation Wind Pressure Humidity
    00:00 +12°C° 0 mm 1 mps 741 mmHg 58%
    01:00 +12°C° 0 mm 1 mps 741 mmHg 58%
    02:00 +12°C° 0 mm 1 mps 740 mmHg 57%
    03:00 +11°C° 0 mm 1 mps 740 mmHg 57%
    04:00 +11°C° 0 mm 1 mps 740 mmHg 57%
    05:00 +12°C° 0 mm 1 mps 741 mmHg 57%
    06:00 +13°C° 0 mm 1 mps 741 mmHg 57%
    07:00 +13°C° 0 mm 1 mps 741 mmHg 57%
    08:00 +15°C° 0 mm 1 mps 741 mmHg 53%
    09:00 +18°C° 0 mm 1 mps 741 mmHg 48%
    10:00 +19°C° 0 mm 1 mps 742 mmHg 44%
    11:00 +19°C° 0.1 mm 2 mps 742 mmHg 43%
    12:00 +19°C° 0.1 mm 3 mps 742 mmHg 42%
    13:00 +20°C° 0.1 mm 3 mps 742 mmHg 42%
    14:00 +19°C° 0.4 mm 3 mps 742 mmHg 46%
    15:00 +19°C° 0.4 mm 3 mps 742 mmHg 50%
    16:00 +18°C° 0.4 mm 3 mps 742 mmHg 55%
    17:00 +17°C° 0.3 mm 2 mps 743 mmHg 60%
    18:00 +15°C° 0.3 mm 2 mps 743 mmHg 66%
    19:00 +14°C° 0.3 mm 1 mps 744 mmHg 71%
    20:00 +13°C° 0 mm 1 mps 744 mmHg 70%
    21:00 +13°C° 0 mm 2 mps 745 mmHg 69%
    22:00 +13°C° 0 mm 2 mps 745 mmHg 68%
    23:00 +12°C° 0 mm 2 mps 746 mmHg 67%

    27 March, Wednesday

    Time Temperature Precipitation Wind Pressure Humidity
    00:00 +12°C° 0 mm 2 mps 746 mmHg 67%
    01:00 +10°C° 0 mm 2 mps 746 mmHg 66%
    02:00 +10°C° 0 mm 2 mps 746 mmHg 66%
    03:00 +9°C° 0 mm 2 mps 746 mmHg 66%
    04:00 +9°C° 0 mm 2 mps 746 mmHg 66%
    05:00 +9°C° 0 mm 2 mps 746 mmHg 63%
    06:00 +10°C° 0 mm 3 mps 746 mmHg 60%
    07:00 +10°C° 0 mm 3 mps 747 mmHg 58%
    08:00 +13°C° 0 mm 2 mps 747 mmHg 52%
    09:00 +15°C° 0 mm 2 mps 747 mmHg 46%
    10:00 +17°C° 0 mm 2 mps 747 mmHg 41%
    11:00 +17°C° 0.1 mm 2 mps 747 mmHg 42%
    12:00 +17°C° 0.1 mm 2 mps 747 mmHg 43%
    13:00 +17°C° 0.1 mm 2 mps 747 mmHg 44%
    14:00 +18°C° 0.3 mm 1 mps 746 mmHg 49%
    15:00 +16°C° 0.3 mm 1 mps 746 mmHg 53%
    16:00 +16°C° 0.3 mm 1 mps 746 mmHg 58%
    17:00 +15°C° 0.6 mm 1 mps 746 mmHg 65%
    18:00 +14°C° 0.6 mm 1 mps 747 mmHg 72%
    19:00 +13°C° 0.6 mm 1 mps 747 mmHg 79%
    20:00 +12°C° 0.4 mm 1 mps 747 mmHg 79%
    21:00 +12°C° 0.4 mm 1 mps 747 mmHg 80%
    22:00 +12°C° 0.4 mm 2 mps 748 mmHg 80%
    23:00 +12°C° 0.1 mm 2 mps 748 mmHg 80%

    28 March, Thursday

    Time Temperature Precipitation Wind Pressure Humidity
    00:00 +12°C° 0.1 mm 2 mps 748 mmHg 79%
    01:00 +10°C° 0.1 mm 2 mps 747 mmHg 78%
    02:00 +10°C° 0 mm 2 mps 747 mmHg 78%
    03:00 +10°C° 0 mm 2 mps 747 mmHg 77%
    04:00 +9°C° 0 mm 2 mps 747 mmHg 77%
    05:00 +10°C° 0 mm 2 mps 747 mmHg 75%
    06:00 +10°C° 0 mm 2 mps 748 mmHg 73%
    07:00 +12°C° 0 mm 2 mps 748 mmHg 71%
    08:00 +12°C° 0 mm 3 mps 748 mmHg 64%
    09:00 +13°C° 0 mm 4 mps 748 mmHg 57%
    10:00 +15°C° 0 mm 5 mps 748 mmHg 50%
    11:00 +15°C° 0 mm 5 mps 748 mmHg 48%
    12:00 +15°C° 0 mm 5 mps 748 mmHg 46%
    13:00 +16°C° 0 mm 5 mps 748 mmHg 43%
    14:00 +15°C° 0 mm 5 mps 748 mmHg 43%
    15:00 +15°C° 0 mm 5 mps 748 mmHg 43%
    16:00 +15°C° 0 mm 5 mps 748 mmHg 43%
    17:00 +13°C° 0 mm 4 mps 748 mmHg 47%
    18:00 +12°C° 0 mm 4 mps 748 mmHg 51%
    19:00 +10°C° 0 mm 3 mps 748 mmHg 55%
    20:00 +10°C° 0 mm 3 mps 749 mmHg 57%
    21:00 +9°C° 0 mm 3 mps 749 mmHg 59%
    22:00 +9°C° 0 mm 3 mps 749 mmHg 61%
    23:00 +8°C° 0 mm 3 mps 749 mmHg 62%

    29 March, Friday

    Time Temperature Precipitation Wind Pressure Humidity
    00:00 +8°C° 0 mm 3 mps 749 mmHg 63%
    01:00 +7°C° 0 mm 2 mps 749 mmHg 64%
    02:00 +7°C° 0 mm 2 mps 749 mmHg 65%
    03:00 +7°C° 0 mm 2 mps 749 mmHg 66%
    04:00 +7°C° 0 mm 2 mps 749 mmHg 66%
    05:00 +7°C° 0 mm 2 mps 749 mmHg 66%
    06:00 +8°C° 0 mm 3 mps 749 mmHg 65%
    07:00 +9°C° 0 mm 3 mps 749 mmHg 64%
    08:00 +11°C° 0 mm 3 mps 749 mmHg 57%
    09:00 +12°C° 0 mm 3 mps 749 mmHg 49%
    10:00 +14°C° 0 mm 4 mps 749 mmHg 42%
    11:00 +15°C° 0 mm 4 mps 749 mmHg 39%
    12:00 +15°C° 0 mm 4 mps 748 mmHg 37%
    13:00 +17°C° 0 mm 4 mps 748 mmHg 34%
    14:00 +17°C° 0 mm 4 mps 748 mmHg 34%
    15:00 +15°C° 0 mm 4 mps 747 mmHg 33%
    16:00 +15°C° 0 mm 4 mps 747 mmHg 33%
    17:00 +13°C° 0 mm 4 mps 747 mmHg 36%
    18:00 +12°C° 0 mm 3 mps 747 mmHg 39%
    19:00 +10°C° 0 mm 3 mps 748 mmHg 42%
    20:00 +9°C° 0 mm 3 mps 748 mmHg 43%
    21:00 +9°C° 0 mm 2 mps 748 mmHg 45%
    22:00 +8°C° 0 mm 2 mps 749 mmHg 46%
    23:00 +8°C° 0 mm 2 mps 749 mmHg 47%
    Show more